Terminal Aerodrome Forecast
Issued by NWS

Home | Current Version | Previous Version | Text Only | Print | Product List | Glossary On
Versions: 1 2 3 4 5 6 7 8 9 10 11 12 13 14 15 16 17 18 19 20 21 22 23 24 25 26 27 28 29 30 31 32 33 34 35 36 37 38 39
453
FTUS43 KDTX 282320
TAFYIP
TAF
KYIP 282320Z 2900/2924 06007KT P6SM OVC045
     FM290100 06005KT P6SM OVC045
     FM291300 03007KT 6SM -SHRA OVC035
     FM291900 06010KT P6SM OVC045=

USA.gov is the U.S. government's official web portal to all federal, state and local government web resources and services.